[[{"header":{"parameterUnit":"m.s-1","parameterCategory":1,"la1":30.2992,"la2":30.254,"lo1":-89.0895,"lo2":-89.0443,"dy":0.0025,"dx":0.0025,"nx":19,"ny":19,"refTime":"2026-05-18T09:00:00:Z","depth":0,"parameterNumber":2,"parameterNumberName":"U-component_of_WINDS"},"data":[0,0,0,-4.7218,-4.722,-4.7336,-4.7336,-4.7493,-4.7495,0,0,0,0,0,0,0,0,0,0,0,-4.7191,-4.7192,-4.7217,-4.722,-4.7336,-4.7336,-4.7493,-4.7495,0,0,0,0,0,0,0,0,0,0,0,-4.719,-4.7192,-4.7193,-4.7221,-4.7336,-4.7336,-4.7493,-4.7402,0,0,0,0,0,0,0,0,0,0,-4.7288,-4.7271,-4.7191,-4.7193,-4.7222,-4.7336,-4.7336,-4.7397,-4.7407,-4.7446,0,-4.7483,0,-4.7492,-4.7506,-4.7507,0,0,0,-4.7214,-4.7262,-4.7287,-4.7194,-4.7223,-4.7335,-4.7282,-4.7403,-4.7414,-4.7459,-4.7485,-4.7491,-4.7494,-4.7507,-4.7508,-4.7752,-4.7753,0,0,-4.7208,-4.7215,-4.7279,-4.7295,-4.7279,-4.7278,-4.7286,-4.741,-4.7438,-4.7486,-4.7494,-4.7497,-4.7508,-4.751,-4.775,-4.7752,0,0,0,-4.7194,-4.7211,-4.7232,-4.7289,-4.7309,-4.7282,-4.729,-4.7432,-4.7438,-4.7496,-4.7499,-4.7509,-4.7511,-4.7749,-4.7751,-4.7827,0,0,0,-4.719,-4.7202,-4.723,-4.7235,-4.7307,-4.7372,-4.731,-4.743,-4.7444,-4.7498,-4.7509,-4.7513,-4.7747,-4.775,-4.7821,-4.786,0,0,0,-4.7181,-4.7201,-4.7221,-4.7235,-4.7285,-4.737,-4.7384,-4.7433,-4.7446,-4.7507,-4.7513,-4.7746,-4.7749,-4.7816,-4.7852,-4.7925,0,0,0,-4.7172,-4.7286,-4.7222,-4.735,-4.7284,-4.7417,-4.7383,-4.7481,-4.7543,-4.751,-4.7747,-4.7751,-4.7815,-4.7847,-4.792,-4.7986,-4.8015,0,0,-4.7319,-4.7304,-4.7379,-4.7325,-4.7471,-4.7399,-4.7556,-4.7605,-4.7604,-4.7702,-4.7708,-4.7823,-4.7852,-4.7924,-4.8178,-4.8201,0,0,0,-4.7428,-4.7482,-4.7519,-4.7579,-4.7621,-4.7658,-4.7684,-4.7702,-4.7785,-4.7657,-4.787,-4.7887,-4.7929,-4.796,-4.7979,-4.8014,-4.7766,-4.7766,-4.7765,-4.7644,-4.7638,-4.7761,-4.777,-4.7828,-4.7853,-4.7899,-4.7928,-4.7904,-4.7955,-4.7983,-4.8138,-4.8175,-4.819,-4.8226,-4.802,-4.802,-4.802,-4.802,-4.7857,-4.7931,-4.7899,-4.8006,-4.7999,-4.8089,-4.8118,-4.8099,-4.818,-4.8117,-4.8153,-4.8082,-4.8215,-4.8246,-4.8026,-4.8025,-4.8024,-4.8024,-4.8023,-4.7995,-4.8029,-4.8051,-4.8137,-4.8204,-4.8209,-4.8289,-4.828,-4.8272,-4.8309,-4.8336,-4.8335,-4.833,-4.8323,-4.8324,-4.8324,-4.8325,-4.8325,-4.8325,-4.8128,-4.8151,-4.822,-4.8275,-4.8312,-4.836,-4.8388,-4.8424,-4.8461,-4.8448,-4.8448,-4.8418,-4.8231,-4.8182,-4.8334,-4.8332,-4.8331,-4.833,-4.833,-4.8342,-4.8292,-4.8399,-4.8437,-4.8501,-4.8567,-4.8556,-4.863,-4.8658,-4.8698,-4.8661,-4.8525,-4.8508,-4.8492,-4.8451,-4.8664,-4.8664,-4.8664,-4.8664,-4.8456,-4.8448,-4.8555,-4.8615,-4.8674,-4.8675,-4.8794,-4.8818,-4.8833,-4.885,-4.8819,-4.8766,-4.8751,-4.8742,-4.8721,-4.8683,-4.8949,-4.8949,-4.895,-4.8586,-4.8583,-4.8687,-4.8703,-4.8753,-4.8795,-4.8907,-4.8976,-4.8984,-4.8961,-4.8863,-4.8851,-4.8765,-4.8738,-4.8709,-4.8677,-4.8606,0,0]},{"header":{"parameterUnit":"m.s-1","parameterCategory":1,"la1":30.2992,"la2":30.254,"lo1":-89.0895,"lo2":-89.0443,"dy":0.0025,"dx":0.0025,"nx":19,"ny":19,"refTime":"2026-05-18T09:00:00:Z","depth":0,"parameterNumber":3,"parameterNumberName":"V-component_of_WINDS"},"data":[0,0,0,3.5821,3.5823,3.592,3.5921,3.6044,3.6046,0,0,0,0,0,0,0,0,0,0,0,3.5793,3.5794,3.582,3.5823,3.592,3.5921,3.6044,3.6046,0,0,0,0,0,0,0,0,0,0,0,3.5792,3.5793,3.5794,3.5823,3.592,3.5921,3.6044,3.597,0,0,0,0,0,0,0,0,0,0,3.5875,3.5851,3.5793,3.5794,3.5824,3.592,3.5921,3.5967,3.5975,3.6,0,3.6025,0,3.6037,3.6054,3.6054,0,0,0,3.5821,3.5844,3.587,3.5795,3.5825,3.592,3.5876,3.5971,3.598,3.6011,3.6027,3.6031,3.6039,3.6055,3.6055,3.6213,3.6214,0,0,3.5816,3.581,3.5864,3.5876,3.5863,3.5873,3.5879,3.5977,3.5992,3.6027,3.6034,3.6042,3.6056,3.6057,3.6212,3.6213,0,0,0,3.5802,3.5806,3.583,3.5871,3.5889,3.5876,3.5883,3.5988,3.5996,3.6035,3.6043,3.6056,3.6058,3.6211,3.6213,3.6248,0,0,0,3.5798,3.5798,3.5827,3.5825,3.5887,3.594,3.5892,3.5989,3.6001,3.6042,3.6056,3.6059,3.621,3.6212,3.6245,3.6265,0,0,0,3.5786,3.5796,3.5811,3.5824,3.5866,3.5939,3.5952,3.5992,3.6006,3.6054,3.6059,3.621,3.6212,3.6243,3.6261,3.6306,0,0,0,3.577,3.5839,3.5812,3.5891,3.5865,3.596,3.5952,3.6022,3.6068,3.6057,3.6211,3.6212,3.6242,3.6258,3.6303,3.6343,3.6359,0,0,3.5853,3.5849,3.5896,3.5875,3.5974,3.5946,3.6049,3.6096,3.6104,3.6176,3.618,3.6246,3.6261,3.6305,3.6451,3.6464,0,0,0,3.5921,3.5955,3.5982,3.6028,3.6067,3.6102,3.6134,3.6151,3.6213,3.6141,3.6274,3.6283,3.631,3.6329,3.634,3.6363,3.6221,3.6221,3.6221,3.6028,3.6039,3.6119,3.6142,3.6185,3.622,3.6256,3.6285,3.628,3.6312,3.6333,3.642,3.6443,3.6451,3.6475,3.6354,3.6355,3.6355,3.6355,3.6152,3.6202,3.6198,3.6274,3.6284,3.6347,3.6383,3.6378,3.6437,3.6404,3.6428,3.6391,3.6465,3.6486,3.6358,3.6357,3.6357,3.6356,3.6356,3.6224,3.625,3.6272,3.6341,3.6392,3.6412,3.6471,3.6477,3.6483,3.6507,3.6531,3.653,3.6531,3.6518,3.6518,3.6519,3.6519,3.6519,3.6519,3.629,3.6314,3.6364,3.6414,3.6445,3.6487,3.6523,3.6553,3.6588,3.6588,3.6588,3.6581,3.647,3.6442,3.6524,3.6523,3.6523,3.6522,3.6522,3.6411,3.6386,3.6462,3.6494,3.6554,3.6605,3.6614,3.6676,3.6701,3.673,3.6719,3.6636,3.663,3.6622,3.6599,3.6716,3.6716,3.6716,3.6716,3.6472,3.6471,3.6553,3.6603,3.6653,3.667,3.6756,3.6786,3.6811,3.6828,3.6812,3.6782,3.6773,3.6773,3.6762,3.674,3.6891,3.6891,3.6891,3.6548,3.6553,3.6625,3.6653,3.6701,3.6742,3.6824,3.6881,3.6904,3.6898,3.6842,3.6834,3.6786,3.677,3.6761,3.6743,3.6704,0,0]}]]